[[{"header":{"parameterUnit":"m.s-1","parameterCategory":1,"la1":30.2992,"la2":30.254,"lo1":-89.0895,"lo2":-89.0443,"dy":0.0025,"dx":0.0025,"nx":19,"ny":19,"refTime":"2026-04-16T03:00:00:Z","depth":0,"parameterNumber":2,"parameterNumberName":"U-component_of_WINDS"},"data":[0,0,0,-0.4259,-0.4257,-0.414,-0.414,-0.4011,-0.401,0,0,0,0,0,0,0,0,0,0,0,-0.4305,-0.4305,-0.4259,-0.4257,-0.414,-0.414,-0.4012,-0.401,0,0,0,0,0,0,0,0,0,0,0,-0.4305,-0.4305,-0.4304,-0.4256,-0.414,-0.414,-0.4012,-0.4093,0,0,0,0,0,0,0,0,0,0,-0.4202,-0.4256,-0.4305,-0.4304,-0.4256,-0.4141,-0.414,-0.4096,-0.4088,-0.4073,0,-0.4062,0,-0.4034,-0.4003,-0.4003,0,0,0,-0.4248,-0.4263,-0.4221,-0.4304,-0.4255,-0.4141,-0.4191,-0.4091,-0.4082,-0.4062,-0.406,-0.4054,-0.4032,-0.4002,-0.4002,-0.3944,-0.3944,0,0,-0.4255,-0.4291,-0.4228,-0.4216,-0.4234,-0.4194,-0.4187,-0.4085,-0.4086,-0.4059,-0.4051,-0.403,-0.4002,-0.4001,-0.3943,-0.3944,0,0,0,-0.4279,-0.4296,-0.4256,-0.4221,-0.4199,-0.4191,-0.4183,-0.409,-0.4074,-0.405,-0.4029,-0.4001,-0.4,-0.3943,-0.3943,-0.3985,0,0,0,-0.4282,-0.4309,-0.4259,-0.428,-0.4201,-0.4143,-0.4191,-0.4081,-0.4069,-0.4029,-0.4001,-0.3999,-0.3943,-0.3943,-0.3983,-0.3998,0,0,0,-0.4309,-0.4312,-0.4299,-0.4282,-0.4233,-0.4144,-0.4121,-0.4078,-0.4056,-0.4003,-0.3998,-0.3943,-0.3943,-0.3982,-0.3996,-0.3994,0,0,0,-0.4348,-0.4337,-0.4301,-0.4281,-0.4234,-0.417,-0.4122,-0.4072,-0.4031,-0.4,-0.3943,-0.3943,-0.3981,-0.3994,-0.3993,-0.4,-0.4006,0,0,-0.4355,-0.4339,-0.4325,-0.4289,-0.424,-0.4185,-0.4142,-0.407,-0.4033,-0.3976,-0.3974,-0.3984,-0.3996,-0.3994,-0.4025,-0.403,0,0,0,-0.4339,-0.433,-0.4309,-0.4271,-0.4216,-0.4171,-0.4103,-0.4076,-0.4026,-0.401,-0.3981,-0.3987,-0.3985,-0.3986,-0.399,-0.3987,-0.3945,-0.3945,-0.3945,-0.4401,-0.4353,-0.4327,-0.4266,-0.423,-0.416,-0.4127,-0.408,-0.4042,-0.4036,-0.4019,-0.4044,-0.4047,-0.405,-0.4046,-0.4018,-0.4018,-0.4018,-0.4018,-0.4407,-0.4387,-0.4337,-0.4294,-0.4244,-0.4207,-0.414,-0.4115,-0.4075,-0.4052,-0.4047,-0.4028,-0.4057,-0.4051,-0.4021,-0.4021,-0.402,-0.402,-0.402,-0.4443,-0.4425,-0.4393,-0.4335,-0.4295,-0.4234,-0.4198,-0.4153,-0.4112,-0.4107,-0.4085,-0.4084,-0.4079,-0.41,-0.41,-0.41,-0.41,-0.41,-0.41,-0.4493,-0.4456,-0.443,-0.4372,-0.4343,-0.4299,-0.4229,-0.4199,-0.4155,-0.4126,-0.4126,-0.409,-0.4068,-0.4064,-0.4101,-0.4101,-0.4101,-0.4101,-0.4101,-0.452,-0.4507,-0.4467,-0.4438,-0.4366,-0.4331,-0.4275,-0.4219,-0.4188,-0.4172,-0.4137,-0.4127,-0.4109,-0.4105,-0.4102,-0.4147,-0.4147,-0.4147,-0.4147,-0.4551,-0.4537,-0.4487,-0.4443,-0.4396,-0.4341,-0.43,-0.4247,-0.4189,-0.4168,-0.4155,-0.4146,-0.4144,-0.4126,-0.4122,-0.4118,-0.4166,-0.4166,-0.4166,-0.4565,-0.4544,-0.4517,-0.446,-0.4401,-0.4352,-0.4312,-0.4266,-0.4198,-0.4166,-0.415,-0.4149,-0.4134,-0.4132,-0.4101,-0.4095,-0.4087,0,0]},{"header":{"parameterUnit":"m.s-1","parameterCategory":1,"la1":30.2992,"la2":30.254,"lo1":-89.0895,"lo2":-89.0443,"dy":0.0025,"dx":0.0025,"nx":19,"ny":19,"refTime":"2026-04-16T03:00:00:Z","depth":0,"parameterNumber":3,"parameterNumberName":"V-component_of_WINDS"},"data":[0,0,0,3.7876,3.7874,3.7762,3.7762,3.7617,3.7616,0,0,0,0,0,0,0,0,0,0,0,3.7911,3.791,3.7877,3.7874,3.7762,3.7762,3.7617,3.7616,0,0,0,0,0,0,0,0,0,0,0,3.7911,3.791,3.7909,3.7873,3.7763,3.7762,3.7618,3.7702,0,0,0,0,0,0,0,0,0,0,3.781,3.7845,3.7911,3.7909,3.7873,3.7763,3.7762,3.7706,3.7696,3.7668,0,3.7645,0,3.7629,3.7606,3.7606,0,0,0,3.7871,3.7852,3.7821,3.7909,3.7872,3.7763,3.7812,3.7701,3.769,3.7655,3.7643,3.7638,3.7626,3.7605,3.7605,3.7455,3.7455,0,0,3.7878,3.7891,3.7829,3.7815,3.7835,3.7816,3.7809,3.7694,3.768,3.7643,3.7635,3.7624,3.7604,3.7603,3.7456,3.7455,0,0,0,3.7897,3.7895,3.7867,3.7821,3.7801,3.7812,3.7804,3.7686,3.7676,3.7633,3.7622,3.7604,3.7602,3.7456,3.7455,3.7441,0,0,0,3.79,3.7907,3.787,3.7877,3.7803,3.7742,3.7798,3.7683,3.767,3.7623,3.7604,3.76,3.7457,3.7456,3.7443,3.7431,0,0,0,3.7918,3.7909,3.7894,3.7878,3.7831,3.7744,3.7727,3.768,3.7664,3.7606,3.76,3.7457,3.7456,3.7444,3.7433,3.7396,0,0,0,3.7939,3.7879,3.7893,3.7823,3.7832,3.7737,3.7728,3.7656,3.7604,3.7603,3.7457,3.7456,3.7445,3.7435,3.7398,3.7367,3.7356,0,0,3.7871,3.7872,3.7829,3.7839,3.7746,3.7753,3.7656,3.7595,3.7575,3.7495,3.7492,3.7442,3.7433,3.7396,3.7288,3.728,0,0,0,3.7812,3.7782,3.7755,3.7709,3.7663,3.7622,3.7575,3.7552,3.7485,3.7538,3.7418,3.7413,3.739,3.7375,3.7367,3.7347,3.7449,3.7449,3.745,3.7734,3.7716,3.7645,3.7614,3.7569,3.7522,3.7483,3.7444,3.7436,3.7408,3.7384,3.7321,3.7303,3.7298,3.7277,3.7366,3.7366,3.7366,3.7366,3.7633,3.7587,3.7582,3.7511,3.7491,3.743,3.7382,3.7379,3.7318,3.7337,3.7316,3.7338,3.7289,3.7269,3.7365,3.7365,3.7365,3.7365,3.7366,3.7579,3.7554,3.7531,3.7464,3.7414,3.7383,3.7326,3.7309,3.7292,3.7272,3.7244,3.7244,3.7242,3.726,3.726,3.726,3.726,3.7259,3.7259,3.7532,3.7506,3.7462,3.7411,3.738,3.7337,3.7291,3.7259,3.7219,3.7211,3.721,3.7205,3.7288,3.7309,3.7256,3.7256,3.7257,3.7257,3.7257,3.7435,3.7455,3.7387,3.7357,3.7296,3.7247,3.7228,3.7164,3.7135,3.7107,3.7107,3.7172,3.717,3.7176,3.7193,3.7112,3.7112,3.7112,3.7112,3.7389,3.7388,3.7316,3.7268,3.722,3.7196,3.7117,3.7081,3.7046,3.7026,3.7036,3.7058,3.7064,3.7058,3.7066,3.7082,3.6975,3.6975,3.6975,3.7329,3.7323,3.726,3.723,3.7182,3.714,3.7065,3.7008,3.6972,3.6969,3.7011,3.7016,3.7051,3.7064,3.706,3.7073,3.7101,0,0]}]]